Flag for Germany Weather past 2 weeks in Oberursel (Taunus), Hesse, Germany

Now
44 °F

Overcast.


Feels Like: 44 °F
Forecast: 50 / 60 °F
Wind: 2 mph from Northeast

Location: Frankfurt / M-Flughafen

Current Time: Sep 24, 2014 at 7:34:59 AM

Latest Report: Sep 24, 2014 at 7:00 AM


Visibility: 10 mi

Pressure: 30.00 "Hg

Humidity: 94%

Dew point: 43 °F

Location of Oberursel (Taunus)Location

Historic Weather in Oberursel (Taunus) — Graph

°F

Oberursel (Taunus) temperature yesterday

Maximum temperature yesterday: 61 °F (at 4:00 PM)
Minimum temperature yesterday: 44 °F (at 7:00 AM)
Average temperature yesterday: 51 °F

Past Weeks' High & Low Weather Summary

 TemperatureHumidityPressure
High76 °F (Sep 17, 4:00 PM)98% (Sep 21, 2:00 AM)30.23 "Hg (Sep 21, 2:00 AM)
Low43 °F (Sep 24, 1:00 AM)43% (Sep 9, 6:00 PM)29.85 "Hg (Sep 18, 5:00 PM)
Average61 °F80%30.03 "Hg
* Reported Sep 9 6:00 AM — Sep 24 6:00 AM, Oberursel (Taunus), Weather by CustomWeather, © 2014

Note: Actual official high and low records may vary slightly from our data, if they occured in-between our weather recording intervals... More about our weather records

Advertising

Oberursel (Taunus) weather history for previous 24 hours

 ConditionsComfort  
Time TempWeatherWind HumidityBarometerVisibility
6:00 AM
Sep 24
44 °FOvercast.2 mph96%30.01 "Hg11 mi
5:00 AM44 °FOvercast.2 mph97%30.03 "Hg11 mi
4:00 AM44 °FOvercast.2 mph95%30.05 "Hg12 mi
3:00 AM45 °FOvercast.1 mph94%30.07 "Hg16 mi
2:00 AM45 °FOvercast.2 mph92%30.08 "Hg16 mi
1:00 AM43 °FPassing clouds.2 mph94%30.07 "Hg16 mi
12:00 AM45 °FPassing clouds.1 mph91%30.09 "Hg16 mi
10:00 PM
Sep 23
49 °FPassing clouds.1 mph83%30.12 "Hg19 mi
9:00 PM51 °FPassing clouds.2 mph75%30.12 "Hg22 mi
8:00 PM54 °FPassing clouds.2 mph69%30.11 "Hg25 mi
7:00 PM58 °FPassing clouds.2 mph59%30.10 "Hg25 mi
6:00 PM60 °FPassing clouds.1 mph51%30.10 "Hg22 mi
4:00 PM61 °FPassing clouds.2 mph55%30.14 "Hg22 mi
3:00 PM60 °FScattered clouds.1 mph50%30.16 "Hg22 mi
2:00 PM57 °FScattered clouds.1 mph56%30.18 "Hg22 mi
1:00 PM57 °FScattered clouds.1 mph63%30.20 "Hg19 mi
12:00 PM56 °FPartly sunny.2 mph75%30.21 "Hg11 mi
11:00 AM54 °FScattered clouds.1 mph80%30.22 "Hg12 mi
10:00 AM49 °FPassing clouds.2 mph90%30.23 "Hg11 mi
9:00 AM47 °FPassing clouds.2 mph95%30.21 "Hg7 mi
8:00 AM44 °FFog.2 mph95%30.22 "Hg3 mi
7:00 AM44 °FPassing clouds.2 mph94%30.20 "Hg10 mi
Weather by CustomWeather, © 2014

See weather overviewHow to use our weather pages